Location: ??
(35.4627°N, 139.3695°E)
Time: 15:21:28
(UTC+00:00)

Cosmos 1812 - Pass Details

Date: 25 November 2020
Orbit: 517 x 520 km, 82.5° (Epoch: 20 January)

Event Time Altitude Azimuth Distance (km) Brightness Sun altitude
Rises 20:55:57 0° 354° (N) 2,644 6.0 -6.9°
Reaches altitude 10° 20:58:06 10° 356° (N) 1,753 5.1 -6.5°
Maximum altitude 21:01:57 80° 83° (E) 531 2.9 -5.8°
Drops below altitude 10° 21:05:46 10° 171° (S) 1,741 5.8 -5.1°
Sets 21:07:53 0° 172° (S) 2,624 6.7 -4.7°
